Lexington Weather

Lexington, Massachusetts, USA

74°F
9/22/2021 1:34pm 
  • Lexington Conditions: Overcast
  • Temperature: 73.9°F / 23.3°CColder 1.8°F than last hour.
  • Dew Point: 68.2°FDecreased 1.2°Fsince last hour.
  • Relative Humidity: 82%Increased 1.0% since last hour.
  • Wind: Wind from WSW WSW 2 mph, 10-min avg: 4 mph, gust: 15 mph
  • Barometer: 30.10 inFalling 0.02  inHg/hr Falling Slowly
  • Visibility: 10 miles
  • Rain Today: 0.00 in
  •   

Regional Weather Roundup
for Boston / Norton, MA

        
000
ASUS41 KBOX 180004
RWRBOX

REGIONAL WEATHER ROUNDUP
NATIONAL WEATHER SERVICE BOSTON/NORTON MA
800 PM EDT FRI SEP 17 2021

NOTE:  "FAIR" INDICATES FEW OR NO CLOUDS BELOW 12,000 FEET WITH NO 
SIGNIFICANT WEATHER AND/OR OBSTRUCTIONS TO VISIBILITY.

MAZALL-180100-
EASTERN MASSACHUSETTS
  
CITY           SKY/WX    TMP DP  RH WIND       PRES   REMARKS
BOSTON         DRZL/FOG  66  63  90 N6        30.21F VSB 1            
6HR MIN TEMP:  66; 6HR MAX TEMP:  70; 6HR PCP: TRACE;                

BEVERLY        CLOUDY    64  63  96 NE6       30.21F FOG              
LAWRENCE       CLOUDY    64  62  93 NE6       30.24F                  
BEDFORD        CLOUDY    64  63  96 NE5       30.21F FOG              
BLUE HILL      NOT AVBL                                               
NORWOOD        FOG       65  63  93 NE5       30.20F VSB 1            
MARSHFIELD     FOG       66  66 100 CALM      30.20S VSB 1/4          
PLYMOUTH       FOG       66  66 100 NE7       30.20S VSB 3/4          
TAUNTON        FOG       65  64  97 VRB3      30.20R VSB 1            
NEW BEDFORD    CLOUDY    67  67 100 N6        30.18R FOG              
$$

MAZALL-180100-
CAPE COD AND THE ISLANDS
  
CITY           SKY/WX    TMP DP  RH WIND       PRES   REMARKS
FALMOUTH       FOG       68  68 100 N8        30.18F VSB 1/2          
HYANNIS        CLOUDY    70  69  97 NE7       30.17S FOG              
CHATHAM        CLOUDY    68  67  96 NE7       30.19S FOG              
PROVINCETOWN   LGT RAIN  66  66 100 E9        30.20F VSB 1/2          
NANTUCKET      MOCLDY    70  68  93 E9        30.15S                  
MARTHAS VNYRD  CLOUDY    71  70  96 NE10      30.17R                  
$$
 
MAZALL-180100-
CENTRAL AND WESTERN MASSACHUSETTS
  
CITY           SKY/WX    TMP DP  RH WIND       PRES   REMARKS
WORCESTER      FOG       63  63 100 NE6       30.23F VSB 1/4          
6HR MIN TEMP:  62; 6HR MAX TEMP:  64;                                

FITCHBURG      CLOUDY    65  63  93 CALM      30.23F                  
ORANGE         CLOUDY    67  63  87 CALM      30.23S                  
SPRINGFIELD    MOCLDY    66  64  92 CALM      30.19F                  
WESTFIELD      CLOUDY    69  67  93 CALM      30.20S                  
NORTH ADAMS    CLOUDY    69  64  84 E8        30.21S                  
PITTSFIELD     CLOUDY    67  65  93 CALM      30.21F                  
$$
 
RIZALL-180100-
RHODE ISLAND
  
CITY           SKY/WX    TMP DP  RH WIND       PRES   REMARKS
PROVIDENCE     CLOUDY    67  65  93 N9        30.20S                  
6HR MIN TEMP:  67; 6HR MAX TEMP:  72;                                

NEWPORT        CLOUDY    67  66  97 NE10      30.18S FOG              
BLOCK ISLAND   CLOUDY    68  66  93 NE13G20   30.17R                  
SMITHFIELD     CLOUDY    65  64  97 NE9       30.21S FOG              
WESTERLY       CLOUDY    67  67 100 N8        30.17S                  
$$
 
CTZALL-180100-
CONNECTICUT
  
CITY           SKY/WX    TMP DP  RH WIND       PRES   REMARKS
BRADLEY INTL   CLOUDY    68  65  90 NE7       30.20S                  
6HR MIN TEMP:  68; 6HR MAX TEMP:  74; 6HR PCP: TRACE;                

HARTFORD       CLOUDY    71  65  81 NE5       30.18S                  
BRIDGEPORT     CLOUDY    73  69  87 NE8       30.15F                  
DANBURY        CLOUDY    73  66  78 NE8       30.19S                  
GROTON         CLOUDY    70  67  90 NE10      30.16S                  
NEW HAVEN      CLOUDY    74  70  87 NE6       30.16S                  
CHESTER        CLOUDY    70  68  94 NE6       30.18S                  
MERIDEN        CLOUDY    71  65  81 NE6       30.17F                  
WILLIMANTIC    CLOUDY    66  65  96 NE7       30.20S                  
OXFORD         CLOUDY    69  67  93 NE8       30.20S                  
$$

MEZ002-015-021-024-NHZ003-005-008-011-012-014-VTZ005-008-180100-
NORTHERN NEW ENGLAND
  
CITY           SKY/WX    TMP DP  RH WIND       PRES   REMARKS
PORTLAND ME    MOCLDY    63  60  90 CALM      30.24F                  
6HR MIN TEMP:  62; 6HR MAX TEMP:  66;                                

BANGOR ME      PTCLDY    64  58  80 SW3       30.24S                  
CONCORD NH     LGT RAIN  65  62  90 CALM      30.23S FOG              
MANCHESTER NH  CLOUDY    67  60  78 VRB3      30.21F                  
NASHUA NH      CLOUDY    66  66 100 NE3       30.23F                  
PORTSMOUTH NH  CLOUDY    64  58  82 NE5       30.24S                  
JAFFREY NH     CLOUDY    65  65 100 CALM      30.25S FOG              
KEENE NH       CLOUDY    67  64  90 CALM      30.23R                  
BURLINGTON VT  PTCLDY    71  65  81 S5        30.16S                  
MT. WASHINGTON DRZL/FOG  52  52 100 SW15G29     N/A  VSB 0            
$$

NYZ052-076-180100-
EASTERN NEW YORK
  
CITY           SKY/WX    TMP DP  RH WIND       PRES   REMARKS
ALBANY         PTCLDY    68  66  93 CALM      30.18S                  
6HR MIN TEMP:  68; 6HR MAX TEMP:  73;                                

NEW YORK CITY  MOCLDY    74  68  81 NE9       30.14S                  
6HR MIN TEMP:  73; 6HR MAX TEMP:  75;                                

$$
 
ANZALL-180100-
MARINE OBSERVATIONS
  
STATION/POSITION TIME  TEMP    WIND        PRES    VSBY  WAVE
                       AIR SEA DIR/SP/G                  HT/PER
                 (UTC) (F)     (DEG/KT/KT) (MB)    (MI)  (FT/S)
BOSTON BUOY      2340      67   20/  8/ 10 1023.0F
BUZZARDS BAY     2300           30/ 17/ 19 1022.2F
NANTUCKET SOUND  2340   71 72   60/ 14/ 17 1021.3S
MASS BAY-STELLWA 2304   64      40/  8/ 10 1022.7F  1 7/8  2/ 4
ISLE OF SHOALS   2300   63      40/ 10/ 12 1023.1F
S OF BLOCK IS    2326      70                N/A           5/ 9
$$

......................KEY.........................
  SKY/WX - SKY CONDITION/PRESENT WEATHER
  TMP    - TEMPERATURE IN FAHRENHEIT
  DWPT   - DEWPOINT IN FAHRENHEIT
  RH     - RELATIVE HUMIDITY IN PERCENT
  WIND   - DIRECTION AND SPEED IN MPH
  PRES   - MEAN SEA LEVEL PRESSURE IN INCHES OF HG
  WCI    - WIND CHILL INDEX
  VSB    - VISIBILITY IN MILES
  HX     - HEAT INDEX
  TC     - TEMPERATURE IN CELSIUS
  VRB    - VARIABLE WIND DIRECTION
  N/A    - NOT AVAILABLE
  
      

Other recent Regional Weather Roundups

Wed Sep 22, 1:04pm

Wed Sep 22, 12:05pm

Wed Sep 22, 11:04am

Wed Sep 22, 10:04am

Wed Sep 22, 9:04am

Wed Sep 22, 8:04am

Wed Sep 22, 7:04am

Wed Sep 22, 6:04am

Wed Sep 22, 5:04am

Wed Sep 22, 4:04am

Wed Sep 22, 3:04am

Wed Sep 22, 2:04am

Wed Sep 22, 1:04am

Wed Sep 22, 12:04am

Tue Sep 21, 11:04pm

Tue Sep 21, 10:04pm

Tue Sep 21, 9:04pm

Tue Sep 21, 8:04pm

Tue Sep 21, 7:04pm

Tue Sep 21, 6:04pm

Tue Sep 21, 5:04pm

Tue Sep 21, 4:04pm

Tue Sep 21, 3:04pm

Tue Sep 21, 2:04pm

Tue Sep 21, 1:04pm

Tue Sep 21, 12:04pm

Tue Sep 21, 11:04am

Tue Sep 21, 10:04am

Tue Sep 21, 9:04am

Tue Sep 21, 8:04am

Tue Sep 21, 7:04am

Tue Sep 21, 6:04am

Tue Sep 21, 5:04am

Tue Sep 21, 4:04am

Tue Sep 21, 3:04am

Tue Sep 21, 2:04am

Tue Sep 21, 1:04am

Tue Sep 21, 12:04am

Mon Sep 20, 11:04pm

Mon Sep 20, 10:04pm

Mon Sep 20, 9:04pm

Mon Sep 20, 8:04pm

Mon Sep 20, 7:04pm

Mon Sep 20, 6:04pm

Mon Sep 20, 5:04pm

Mon Sep 20, 4:04pm

Mon Sep 20, 3:04pm

Mon Sep 20, 2:04pm

Mon Sep 20, 1:04pm

Mon Sep 20, 12:04pm

Mon Sep 20, 11:04am

Mon Sep 20, 10:04am

Mon Sep 20, 9:04am

Mon Sep 20, 7:04am

Mon Sep 20, 6:04am

Mon Sep 20, 5:04am

Mon Sep 20, 4:04am

Mon Sep 20, 3:04am

Mon Sep 20, 2:04am

Mon Sep 20, 1:04am

Mon Sep 20, 12:04am

Sun Sep 19, 11:04pm

Sun Sep 19, 10:04pm

Sun Sep 19, 9:04pm

Sun Sep 19, 8:04pm

Sun Sep 19, 7:04pm

Sun Sep 19, 6:04pm

Sun Sep 19, 5:04pm

Sun Sep 19, 4:04pm

Sun Sep 19, 3:04pm

Sun Sep 19, 2:05pm

Sun Sep 19, 1:04pm

Sun Sep 19, 12:04pm

Sun Sep 19, 11:04am

Sun Sep 19, 10:05am

Sun Sep 19, 9:04am

Sun Sep 19, 8:04am

Sun Sep 19, 7:04am

Sun Sep 19, 6:04am

Sun Sep 19, 5:04am

Sun Sep 19, 4:04am

Sun Sep 19, 3:04am

Sun Sep 19, 2:04am

Sun Sep 19, 1:04am

Sun Sep 19, 12:04am

Sat Sep 18, 11:05pm

Sat Sep 18, 10:04pm

Sat Sep 18, 9:04pm

Sat Sep 18, 8:04pm

Sat Sep 18, 7:04pm

Sat Sep 18, 6:04pm

Sat Sep 18, 5:04pm

Sat Sep 18, 4:04pm

Sat Sep 18, 3:04pm

Sat Sep 18, 2:04pm

Sat Sep 18, 1:04pm

Sat Sep 18, 12:04pm

Sat Sep 18, 11:04am

Sat Sep 18, 10:04am

Sat Sep 18, 9:04am

Sat Sep 18, 8:04am

Sat Sep 18, 7:04am

Sat Sep 18, 6:04am

Sat Sep 18, 5:04am

Sat Sep 18, 4:04am

Sat Sep 18, 3:04am

Sat Sep 18, 2:04am

Sat Sep 18, 1:04am

Sat Sep 18, 12:04am

Fri Sep 17, 11:04pm

Fri Sep 17, 10:04pm

Fri Sep 17, 9:04pm

Fri Sep 17, 7:04pm

Fri Sep 17, 6:04pm

Fri Sep 17, 5:04pm

Fri Sep 17, 4:04pm

Fri Sep 17, 3:04pm

Fri Sep 17, 2:04pm

Fri Sep 17, 1:04pm

Fri Sep 17, 12:05pm

Fri Sep 17, 11:04am

Fri Sep 17, 10:04am

Fri Sep 17, 9:04am

Fri Sep 17, 8:04am

Fri Sep 17, 7:04am

Fri Sep 17, 6:04am

Fri Sep 17, 5:04am

Fri Sep 17, 4:04am

Fri Sep 17, 3:04am

Fri Sep 17, 2:04am

Fri Sep 17, 1:04am

Fri Sep 17, 12:04am

Thu Sep 16, 11:04pm

Thu Sep 16, 10:04pm

Thu Sep 16, 9:04pm

Thu Sep 16, 8:04pm

Thu Sep 16, 7:04pm

Thu Sep 16, 6:04pm

Thu Sep 16, 5:04pm

Thu Sep 16, 4:04pm

Thu Sep 16, 3:04pm

Thu Sep 16, 2:04pm

Thu Sep 16, 1:05pm

Thu Sep 16, 12:04pm

Thu Sep 16, 11:05am

Thu Sep 16, 10:05am

Thu Sep 16, 9:04am

Thu Sep 16, 8:04am

Thu Sep 16, 7:04am

Thu Sep 16, 6:04am

Thu Sep 16, 5:04am

Thu Sep 16, 4:04am

Thu Sep 16, 3:04am

Thu Sep 16, 2:04am

Thu Sep 16, 1:04am

Thu Sep 16, 12:04am

Wed Sep 15, 11:04pm

Wed Sep 15, 10:04pm

Wed Sep 15, 9:04pm

Wed Sep 15, 8:04pm

Wed Sep 15, 7:04pm

Wed Sep 15, 6:04pm

Wed Sep 15, 5:05pm

Wed Sep 15, 4:04pm

Wed Sep 15, 3:04pm

Wed Sep 15, 2:04pm

Meta data:

ID: 18fd6f30-f3c0-4fee-a253-edb50f71b7da
Link: https://api.weather.gov/products/18fd6f30-f3c0-4fee-a253-edb50f71b7da